Overview Statistics Trail Chart Weather Telemetry Raw packets
 

This is the latest recevied weather packets stored in our database for station/object G0TQM-11. If no packets are shown the sender has not sent any weather packets the latest 10 day(s).

<< 24 25 26 27 28 29 >>
Time Temp. Humidity Pressure Rain* Wind** Luminosity Snow
1787919701 21.67° C 64% 1000.5 hPa - - - -
1787918501 21.67° C 65% 1000.4 hPa - - - -
1787917301 21.67° C 65% 1000.5 hPa - - - -
1787916101 21.67° C 64% 1000.5 hPa - - - -
1787914901 22.22° C 63% 1000.6 hPa - - - -
1787913700 21.67° C 64% 1000.4 hPa - - - -
1787912500 21.67° C 67% 1000.3 hPa - - - -
1787911300 20.56° C 70% 1000.2 hPa - - - -
1787910100 20° C 71% 1000.3 hPa - - - -
1787908900 20° C 70% 1000.1 hPa - - - -
1787907700 22.22° C 62% 1000.2 hPa - - - -
1787906500 22.22° C 62% 1000.1 hPa - - - -
1787905299 21.67° C 66% 1000.3 hPa - - - -
1787904099 22.78° C 62% 1000.4 hPa - - - -
1787902899 23.33° C 62% 1000.5 hPa - - - -
1787901699 22.78° C 62% 1000.3 hPa - - - -
1787900499 21.67° C 66% 1000.3 hPa - - - -
1787899299 20.56° C 68% 1000.3 hPa - - - -
1787898099 20.56° C 68% 1000.3 hPa - - - -
1787896898 20.56° C 69% 1000.6 hPa - - - -
1787895698 20.56° C 69% 1000.4 hPa - - - -
1787894498 21.11° C 69% 1000.6 hPa - - - -
1787893298 21.11° C 70% 1000.6 hPa - - - -
1787892098 20.56° C 70% 1000.7 hPa - - - -
1787890898 20.56° C 70% 1000.9 hPa - - - -

* Rain since midnight (hover to see other rain measurements)
** Current wind speed in m/s (hover to see current wind gust speed)